Simultaneous Nadir Overpasses (SNOs) Predictions

Prediction of SNOs between GOES-16 and TERRA Satellite Orbit:

Table of predicted SNOs for the next 14.0 days since TLE Epoch: 1/15/2022
Index Date Time (GOES-16) GOES-16 Lat,Lon TERRA Lat,Lon Distance(km) Time Diff (sec)
1 01/15/2022 15:25:50 -0.00, -75.20 0.02, -75.25 6.03 80
2 01/17/2022 15:10:57 -0.00, -75.19 -0.63, -72.30 329.40 80
3 01/18/2022 03:35:00 -0.00, -75.17 -0.52, -77.48 263.04 80
4 01/20/2022 03:20:07 -0.01, -75.18 0.14, -74.54 73.13 80
5 01/22/2022 03:07:53 -0.01, -75.18 0.75, -71.58 409.98 80
6 01/22/2022 15:31:48 0.02, -75.20 0.34, -76.74 174.28 80
7 01/24/2022 15:19:34 0.02, -75.22 -0.26, -73.78 163.15 80
8 01/25/2022 03:40:58 -0.02, -75.21 -0.81, -78.98 428.55 80
9 01/27/2022 03:28:44 -0.01, -75.22 -0.20, -76.02 91.13 80
